Location: Newark
(7.0858°N, 171.3717°E)
Time: 07:24:19
(UTC+00:00)

S-56A Canister/Altair - Pass Details

Date: 03 December 2020
Orbit: 633 x 2499 km, 38.9° (Epoch: 27 January)

Event Time Altitude Azimuth Distance (km) Brightness Sun altitude
Rises 05:03:06 0° 246° (WSW) 6,113 14.0 15.8°
Reaches altitude 10° 05:07:19 10° 251° (WSW) 5,154 14.4 14.9°
Maximum altitude 05:21:31 47° 321° (NW) 2,886 10.8 11.7°
Drops below altitude 10° 05:33:24 10° 32° (NNE) 4,320 10.9 9.0°
Sets 05:36:38 0° 38° (NE) 5,083 11.2 8.3°
